KI5RKU-09 Weather Reports


time (UTC)temp
F
wind
direction
speed
knots
gust
knots
rain 1hr
in
rain 24hr
in
rain mn
in
humidity
%
barometer
mb
20260506071028 58 325 3.5 8.7 0.00 0.00 0.00 73 1010.7
20260506070528 58 342 2.6 9.6 0.00 0.00 0.00 73 1010.7
20260506062028 60 355 2.6 11.3 0.00 0.00 0.00 73 1010.6
20260506061544 60 335 5.2 11.3 0.00 0.00 0.00 73 1010.6
20260506061030 60 352 5.2 11.3 0.00 0.00 0.00 73 1010.6
20260506060528 60 360 7.0 11.3 0.00 0.00 0.00 73 1010.6
20260506051028 61 312 6.1 11.3 0.00 0.00 0.00 73 1010.6
20260506050528 62 316 4.3 10.4 0.00 0.00 0.00 73 1010.7
20260506045027 62 319 6.1 15.6 0.00 0.00 0.00 73 1010.6
20260506044539 62 46 7.0 15.6 0.00 0.00 0.00 73 1010.6
20260506044029 63 5 7.8 14.8 0.00 0.00 0.00 73 1010.4
20260506043532 63 344 6.1 14.8 0.00 0.00 0.00 73 1010.5
20260506043042 63 346 6.1 12.2 0.00 0.00 0.00 74 1010.4
20260506042528 64 352 5.2 13.0 0.00 0.00 0.00 74 1010.3
20260506042028 64 19 4.3 13.0 0.00 0.00 0.00 73 1010.2
20260506041543 64 327 4.3 12.2 0.00 0.00 0.00 74 1010.2
20260506041028 64 355 4.3 11.3 0.00 0.00 0.00 74 1010.2
20260506040526 64 311 6.1 13.0 0.00 0.00 0.00 74 1010.0
20260506040041 64 50 6.1 13.0 0.00 0.00 0.00 73 1009.9
20260506035529 65 350 6.1 13.0 0.00 0.00 0.00 73 1009.9
20260506035027 65 332 5.2 13.0 0.00 0.00 0.00 73 1009.9
20260506034557 65 315 7.0 13.0 0.00 0.00 0.00 73 1009.8
20260506034029 65 22 6.1 13.0 0.00 0.00 0.00 72 1009.8
20260506033528 66 347 4.3 13.0 0.00 0.00 0.00 72 1009.7
20260506033039 66 329 5.2 12.2 0.00 0.00 0.00 72 1009.7
20260506032528 67 327 6.1 13.0 0.00 0.00 0.00 72 1009.6
20260506032028 67 317 5.2 13.0 0.00 0.00 0.00 71 1009.7
20260506031543 68 336 6.1 13.0 0.00 0.00 0.00 71 1009.5
20260506031027 68 340 5.2 11.3 0.00 0.00 0.00 72 1009.5
20260506030527 68 319 5.2 13.0 0.00 0.00 0.00 72 1009.2
20260506030042 68 350 6.1 13.0 0.00 0.00 0.00 71 1009.1
20260506025526 69 5 7.0 13.0 0.00 0.00 0.00 71 1009.3
20260506025027 69 312 5.2 12.2 0.00 0.00 0.00 71 1009.0
20260506024603 69 313 7.0 12.2 0.00 0.00 0.00 70 1008.9
20260506024028 70 342 5.2 12.2 0.00 0.00 0.00 70 1008.7
20260506023527 70 314 5.2 12.2 0.00 0.00 0.00 70 1008.4
20260506023041 70 316 6.1 12.2 0.00 0.00 0.00 71 1008.1
20260506022527 70 310 3.5 12.2 0.00 0.00 0.00 70 1008.1
20260506022028 71 18 5.2 12.2 0.00 0.00 0.00 70 1007.7
20260506021540 71 336 6.1 12.2 0.00 0.00 0.00 70 1007.9
20260506021028 71 327 6.1 11.3 0.00 0.00 0.00 69 1007.7
20260506020527 72 300 5.2 11.3 0.00 0.00 0.00 69 1007.6
20260506020042 72 348 4.3 11.3 0.00 0.00 0.00 68 1007.2
20260506015528 73 327 4.3 9.6 0.00 0.00 0.00 68 1007.4
20260506015028 73 331 2.6 7.0 0.00 0.00 0.00 67 1007.3
20260506014540 73 309 3.5 10.4 0.00 0.00 0.00 67 1007.4
20260506014026 73 355 4.3 10.4 0.00 0.00 0.00 67 1007.4
20260506013529 73 352 3.5 9.6 0.00 0.00 0.00 66 1007.1
20260506013059 73 341 6.1 9.6 0.00 0.00 0.00 66 1007.3
20260506012527 73 19 3.5 9.6 0.00 0.00 0.00 66 1007.2
20260506012028 73 328 5.2 10.4 0.00 0.00 0.00 65 1007.2
20260506011542 74 355 4.3 10.4 0.00 0.00 0.00 65 1007.3
20260506011029 74 312 3.5 11.3 0.00 0.00 0.00 65 1007.1
20260506010528 74 346 5.2 11.3 0.00 0.00 0.00 65 1006.7
20260506010037 74 317 4.3 10.4 0.00 0.00 0.00 65 1006.8
20260506005527 74 337 3.5 9.6 0.00 0.00 0.00 64 1006.6
20260506005027 75 355 2.6 10.4 0.00 0.00 0.00 64 1006.1
20260506004542 75 306 5.2 10.4 0.00 0.00 0.00 64 1006.5
20260506004027 75 352 4.3 9.6 0.00 0.00 0.00 64 1006.6
20260506003529 75 342 5.2 12.2 0.00 0.00 0.00 64 1006.5
20260506003042 76 350 5.2 12.2 0.00 0.00 0.00 63 1006.6
20260506002528 76 360 3.5 11.3 0.00 0.00 0.00 63 1006.4
20260506002028 77 339 5.2 11.3 0.00 0.00 0.00 62 1006.4
20260506001545 78 352 5.2 13.0 0.00 0.00 0.00 62 1006.4
20260506001028 78 342 2.6 13.0 0.00 0.00 0.00 61 1006.3
20260506000527 79 352 3.5 13.9 0.00 0.00 0.00 60 1006.2
20260506000043 80 286 7.8 13.9 0.00 0.00 0.00 59 1005.8
20260505235526 80 348 3.5 10.4 0.00 0.00 0.00 59 1005.6
20260505235026 80 339 5.2 13.0 0.00 0.00 0.00 59 1005.6
20260505234541 81 327 5.2 13.0 0.00 0.00 0.00 58 1005.6
20260505234028 81 333 5.2 12.2 0.00 0.00 0.00 57 1005.6
20260505233528 82 339 5.2 11.3 0.00 0.00 0.00 56 1005.7
20260505233044 83 338 3.5 17.4 0.00 0.00 0.00 56 1005.7
20260505232527 84 304 6.1 17.4 0.00 0.00 0.00 54 1005.6
20260505232028 85 339 5.2 10.4 0.00 0.00 0.00 51 1005.4
20260505231544 86 315 3.5 8.7 0.00 0.00 0.00 49 1005.3
20260505231032 86 296 3.5 9.6 0.00 0.00 0.00 48 1005.2
20260505230528 86 310 4.3 10.4 0.00 0.00 0.00 47 1005.2
20260505230055 87 337 3.5 10.4 0.00 0.00 0.00 47 1005.1
20260505225528 88 360 3.5 9.6 0.00 0.00 0.00 47 1004.8
20260505225028 88 321 3.5 11.3 0.00 0.00 0.00 46 1004.9
20260505224541 89 292 2.6 11.3 0.00 0.00 0.00 48 1004.8
20260505224027 89 270 5.2 11.3 0.00 0.00 0.00 47 1004.8
20260505223527 89 246 3.5 7.0 0.00 0.00 0.00 50 1004.8
20260505223053 89 227 2.6 7.0 0.00 0.00 0.00 51 1004.5
20260505222531 89 204 1.7 7.0 0.00 0.00 0.00 50 1004.5
20260505222028 89 0 0.9 8.7 0.00 0.00 0.00 51 1004.4
20260505221542 89 262 3.5 8.7 0.00 0.00 0.00 50 1004.4
20260505221027 89 238 2.6 9.6 0.00 0.00 0.00 50 1004.4
20260505220526 90 159 2.6 9.6 0.00 0.00 0.00 51 1004.3
20260505220045 89 167 4.3 9.6 0.00 0.00 0.00 49 1004.4
20260505215528 90 209 3.5 13.0 0.00 0.00 0.00 49 1004.5
20260505215028 90 211 4.3 13.0 0.00 0.00 0.00 51 1004.6
20260505214541 90 236 3.5 10.4 0.00 0.00 0.00 50 1004.6
20260505214026 90 190 3.5 10.4 0.00 0.00 0.00 49 1004.5
20260505213527 90 226 3.5 9.6 0.00 0.00 0.00 50 1004.6
20260505213051 90 205 4.3 12.2 0.00 0.00 0.00 50 1004.7
20260505212531 90 232 4.3 12.2 0.00 0.00 0.00 50 1004.8
20260505212028 90 221 5.2 12.2 0.00 0.00 0.00 51 1004.7
20260505211542 90 214 5.2 10.4 0.00 0.00 0.00 51 1004.9
20260505211028 90 184 4.3 13.0 0.00 0.00 0.00 49 1004.9
20260505210527 90 211 5.2 13.0 0.00 0.00 0.00 51 1005.1
20260505210041 90 236 5.2 13.0 0.00 0.00 0.00 52 1004.9
20260505205528 89 185 6.1 13.9 0.00 0.00 0.00 51 1005.0
20260505205028 89 262 5.2 14.8 0.00 0.00 0.00 52 1005.0
20260505204542 89 215 7.8 14.8 0.00 0.00 0.00 52 1005.3
20260505204032 90 197 5.2 13.9 0.00 0.00 0.00 52 1005.2
20260505203527 91 217 6.1 13.9 0.00 0.00 0.00 51 1005.3
20260505203047 90 250 4.3 13.9 0.00 0.00 0.00 52 1005.4
20260505202529 89 280 2.6 13.9 0.00 0.00 0.00 54 1005.4
20260505202026 88 221 7.0 13.9 0.00 0.00 0.00 57 1005.4
20260505201537 89 227 5.2 13.9 0.00 0.00 0.00 57 1005.4
20260505201029 88 252 6.1 15.6 0.00 0.00 0.00 59 1005.4
20260505200528 87 188 9.6 15.6 0.00 0.00 0.00 58 1005.4
20260505200042 87 212 5.2 15.6 0.00 0.00 0.00 57 1005.5
20260505195527 88 170 5.2 15.6 0.00 0.00 0.00 58 1005.6
20260505195027 88 159 3.5 13.0 0.00 0.00 0.00 58 1005.6
20260505194547 87 171 5.2 17.4 0.00 0.00 0.00 59 1005.5
20260505194031 86 184 8.7 17.4 0.00 0.00 0.00 60 1005.6
20260505193527 85 360 7.8 15.6 0.00 0.00 0.00 61 1005.6
20260505193042 85 360 8.7 15.6 0.00 0.00 0.00 61 1005.6
20260505192529 85 207 7.0 16.5 0.00 0.00 0.00 61 1005.6
20260505192026 85 234 7.8 16.5 0.00 0.00 0.00 62 1005.7
20260505191540 84 217 5.2 18.2 0.00 0.00 0.00 64 1005.6
20260505191026 84 360 8.7 19.1 0.00 0.00 0.00 63 1005.6
20260505190532 84 360 7.0 19.1 0.00 0.00 0.00 64 1005.6
20260505190038 83 360 8.7 14.8 0.00 0.00 0.00 64 1005.6
20260505185529 83 227 7.0 16.5 0.00 0.00 0.00 64 1005.8
20260505185028 82 360 7.8 16.5 0.00 0.00 0.00 66 1005.8
20260505184541 82 256 8.7 14.8 0.00 0.00 0.00 65 1005.9
20260505184027 82 194 8.7 14.8 0.00 0.00 0.00 65 1006.0
20260505183528 82 222 6.1 14.8 0.00 0.00 0.00 66 1005.9
20260505183056 82 360 7.8 20.0 0.00 0.00 0.00 66 1005.9
20260505182527 82 195 10.4 20.0 0.00 0.00 0.00 65 1005.9
20260505182029 82 187 5.2 16.5 0.00 0.00 0.00 66 1005.8
20260505181543 82 209 7.8 13.9 0.00 0.00 0.00 65 1005.9
20260505181025 82 154 5.2 14.8 0.00 0.00 0.00 65 1006.0
20260505180527 82 219 6.1 15.6 0.00 0.00 0.00 66 1005.9
20260505180041 82 209 9.6 18.2 0.00 0.00 0.00 66 1005.9
20260505175528 82 188 7.0 19.1 0.00 0.00 0.00 67 1005.9
20260505175028 82 186 7.8 19.1 0.00 0.00 0.00 67 1005.9
20260505174535 81 178 5.2 15.6 0.00 0.00 0.00 68 1005.9
20260505174027 81 360 8.7 15.6 0.00 0.00 0.00 68 1006.0
20260505173529 81 209 7.8 17.4 0.00 0.00 0.00 69 1005.9
20260505173047 80 360 6.1 20.0 0.00 0.00 0.00 70 1005.9
20260505172526 79 185 11.3 20.0 0.00 0.00 0.00 70 1006.0
20260505172027 80 215 8.7 19.1 0.00 0.00 0.00 70 1006.1
20260505171543 79 131 8.7 19.1 0.00 0.00 0.00 70 1006.0
20260505171031 79 239 8.7 21.7 0.00 0.00 0.00 71 1006.1
20260505170528 79 187 10.4 21.7 0.00 0.00 0.00 71 1006.1
20260505170042 78 360 10.4 20.0 0.00 0.00 0.00 71 1006.1
20260505165527 78 360 7.8 19.1 0.00 0.00 0.00 72 1006.1
20260505165028 78 201 10.4 19.1 0.00 0.00 0.00 71 1006.1
20260505164556 78 360 7.8 18.2 0.00 0.00 0.00 72 1006.0
20260505164028 78 208 8.7 18.2 0.00 0.00 0.00 72 1005.9
20260505163528 78 209 9.6 20.0 0.00 0.00 0.00 72 1005.9
20260505163051 78 168 10.4 20.9 0.00 0.00 0.00 72 1005.9
20260505162526 77 222 11.3 20.9 0.00 0.00 0.00 72 1005.8
20260505162027 77 194 7.8 18.2 0.00 0.00 0.00 72 1005.8
20260505161544 77 201 8.7 22.6 0.00 0.00 0.00 73 1005.8
20260505161025 77 219 10.4 22.6 0.00 0.00 0.00 73 1005.9
20260505160525 77 183 10.4 21.7 0.00 0.00 0.00 73 1005.8
20260505153053 75 257 10.4 26.9 0.00 0.00 0.00 76 1005.5
20260505152527 75 228 13.9 26.9 0.00 0.00 0.00 76 1005.6
20260505152028 75 170 7.0 24.3 0.00 0.00 0.00 76 1005.7
20260505151553 75 204 13.0 24.3 0.00 0.00 0.00 77 1005.8
20260505151026 74 215 10.4 22.6 0.00 0.00 0.00 77 1005.9
20260505150527 74 193 11.3 22.6 0.00 0.00 0.00 77 1005.8
20260505140527 73 190 8.7 20.0 0.00 0.00 0.00 79 1005.7
20260505125027 71 182 8.7 17.4 0.00 0.00 0.00 82 1005.2
20260505124543 71 360 6.1 20.9 0.00 0.00 0.00 82 1005.2
20260505124029 71 194 10.4 20.9 0.00 0.00 0.00 82 1005.2
20260505123528 71 168 10.4 16.5 0.00 0.00 0.00 82 1005.2
20260505123042 71 360 8.7 20.9 0.00 0.00 0.00 82 1005.1
20260505122528 71 188 8.7 20.9 0.00 0.00 0.00 82 1004.8
20260505122028 71 149 7.8 18.2 0.00 0.00 0.00 82 1004.8
20260505121542 71 178 9.6 19.1 0.00 0.00 0.00 82 1004.9
20260505121029 71 229 9.6 25.2 0.00 0.00 0.00 82 1004.7
20260505120528 71 207 11.3 25.2 0.00 0.00 0.00 82 1004.7
20260505120046 71 211 9.6 23.5 0.00 0.00 0.00 82 1004.8
20260505115529 71 360 8.7 20.9 0.00 0.00 0.00 82 1004.6
20260505115033 71 149 9.6 20.9 0.00 0.00 0.00 81 1004.6
20260505114545 71 199 9.6 20.9 0.00 0.00 0.00 81 1004.6
20260505114028 71 163 5.2 20.9 0.00 0.00 0.00 81 1004.6
20260505113528 71 360 9.6 24.3 0.00 0.00 0.00 81 1004.5
20260505113037 71 185 9.6 24.3 0.00 0.00 0.00 81 1004.5
20260505112529 71 208 7.0 18.2 0.00 0.00 0.00 81 1004.5
20260505112028 71 225 9.6 22.6 0.00 0.00 0.00 81 1004.7
20260505111550 71 182 10.4 22.6 0.00 0.00 0.00 81 1004.4
20260505111029 71 360 7.8 17.4 0.00 0.00 0.00 81 1004.6
20260505110529 71 221 7.0 17.4 0.00 0.00 0.00 81 1004.7
20260505102027 71 203 8.7 20.0 0.00 0.00 0.00 81 1004.4
20260505101538 71 163 12.2 23.5 0.00 0.00 0.00 81 1004.7
20260505101027 71 186 11.3 23.5 0.00 0.00 0.00 81 1004.6
20260505100527 71 213 11.3 24.3 0.00 0.00 0.00 81 1004.6
20260505100042 71 159 8.7 24.3 0.00 0.00 0.00 81 1004.5
20260505095531 71 173 8.7 18.2 0.00 0.00 0.00 81 1004.6
20260505095027 71 184 8.7 20.0 0.00 0.00 0.00 81 1004.6
20260505094542 71 212 8.7 20.0 0.00 0.00 0.00 81 1004.8
20260505094029 71 169 10.4 23.5 0.00 0.00 0.00 81 1004.6
20260505093527 71 147 10.4 23.5 0.00 0.00 0.00 81 1004.7
20260505093042 71 175 9.6 23.5 0.00 0.00 0.00 81 1004.6
20260505092527 71 187 10.4 20.0 0.00 0.00 0.00 81 1004.7
20260505092027 71 178 10.4 22.6 0.00 0.00 0.00 81 1004.8
20260505091554 71 196 7.8 22.6 0.00 0.00 0.00 81 1004.8
20260505091027 71 158 11.3 22.6 0.00 0.00 0.00 81 1004.9
20260505090527 71 171 12.2 22.6 0.00 0.00 0.00 81 1004.9
20260505090054 71 180 11.3 22.6 0.00 0.00 0.00 81 1004.9
20260505085528 70 160 9.6 22.6 0.00 0.00 0.00 81 1005.0
20260505085027 70 170 11.3 20.9 0.00 0.00 0.00 81 1005.0
20260505084543 70 176 9.6 22.6 0.00 0.00 0.00 81 1005.1
20260505084027 70 360 9.6 26.1 0.00 0.00 0.00 81 1005.1
20260505083529 70 178 10.4 26.1 0.00 0.00 0.00 81 1005.1
20260505083047 70 153 7.8 20.9 0.00 0.00 0.00 81 1004.9
20260505082527 70 202 9.6 20.9 0.00 0.00 0.00 81 1005.0
20260505082029 70 360 8.7 20.9 0.00 0.00 0.00 80 1005.0
20260505081555 71 360 7.8 20.9 0.00 0.00 0.00 80 1005.0
20260505081028 71 149 7.0 17.4 0.00 0.00 0.00 80 1005.1
20260505080532 71 360 7.8 17.4 0.00 0.00 0.00 80 1005.0
20260505080048 71 135 6.1 19.1 0.00 0.00 0.00 80 1005.1
20260505075527 71 217 7.0 19.1 0.00 0.00 0.00 79 1005.2
20260505075029 71 186 7.8 18.2 0.00 0.00 0.00 79 1005.1
20260505074602 71 157 8.7 18.2 0.00 0.00 0.00 79 1005.3
20260505074028 71 204 11.3 18.2 0.00 0.00 0.00 78 1005.4
20260505073531 71 179 8.7 18.2 0.00 0.00 0.00 78 1005.4
20260505073044 72 155 8.7 18.2 0.00 0.00 0.00 78 1005.6
20260505072530 72 360 7.0 19.1 0.00 0.00 0.00 78 1005.9
20260505072028 72 360 7.8 19.1 0.00 0.00 0.00 78 1006.0
20260505071538 72 360 7.8 16.5 0.00 0.00 0.00 77 1006.0